Tracking 30701 objects as of 14-Jun-2025
HD Live streaming from Space Station
objects crossing your sky now

STARLINK-4750

Track STARLINK-4750 now!
10-day predictions
STARLINK-4750 is classified as:


NORAD ID: 53841
Int'l Code: 2022-114Z
Perigee: 545.8 km
Apogee: 548.1 km
Inclination: 53.2 °
Period: 95.4 minutes
Semi major axis: 6917 km
RCS: Unknown
Launch date: September 19, 2022
Source: United States (US)
Launch site: AIR FORCE EASTERN TEST RANGE (AFETR)
Your satellite tracking list
Your tracking list is empty




NASA's NSSDC Master Catalog

Two Line Element Set (TLE):
1 53841U 22114Z   25165.44287893 -.00001059  00000-0 -48462-4 0  9990
2 53841  53.2188  58.4540 0001662  84.9386 275.1795 15.08827228152477
Source of the keplerian elements: AFSPC